Current weather by "City, St" or "zip code"  
 

Current Conditions: Hattiesburg/Laurel, Hattiesburg-Laurel Regional Airport, MS

Overcast


68.0 F

Last Updated on Oct 23 2020, 9:56 pm CDT
Humidity: 100%
Wind Speed: N 0.0 mph
Barometer 30.02 in
Dewpoint: 68.0 F
Visibility: 10.00 mi
Precip: Trace
Heat Index: NA
Wind Chill: NA
Current conditions at:

Hattiesburg/Laurel, Hattiesburg-Laurel Regional Airport, MS (KPIB)

Lat: 31.46667 Lon: 89.33333

Local Radar Image active severe weather and emergency alerts image image weather storm and storm spotter reports image weather observation monitoring service image
Local
Radar
Active
Alerts
Storm Reports Obs
Monitoring

Sign-up For Email & Text Message Weather Alert Notification Services



Advertise Here

Observation History for Hattiesburg/Laurel, Hattiesburg-Laurel Regional Airport, MS


Time Wind
(mph)
Vis
(mi)
Weather Precip (in) Temperature (F) Relative
Humidity
Wind
Chill
(F)
Heat
Index
(F)
Pressure
Air Dwpt altimeter
(in)
sea level
(mb)
Rmks
9:56 pm CDT N 0.0 10.00 Overcast Trace 68.0 68.0 100% NA NA 30.02 1016.5
8:56 pm CDT N 3.5 10.00 Light Rain 00.02 68.0 68.0 100% NA NA 30.01 1016.0
7:56 pm CDT NW 3.5 10.00 Light Rain 00.05 68.0 68.0 100% NA NA 30.01 1016.2
6:56 pm CDT S 5.8 9.00 Thunderstorm in Vicinity Rain 00.58 69.0 68.0 96% NA NA 29.99 1015.4
5:56 pm CDT SW 9.2 G 17.3 3.00 Thunderstorm Heavy Rain Fog/Mist -- 71.0 68.0 90% NA NA 30.02 1016.4
4:56 pm CDT E 3.5 10.00 Mostly Cloudy -- 81.0 71.1 72% NA 85 29.95 1014.1
3:56 pm CDT E 8.1 10.00 Fair -- 86.0 70.0 59% NA 91 29.95 1013.8
2:56 pm CDT N 6.9 10.00 Fair -- 83.0 71.1 67% NA 88 29.96 1014.3
1:56 pm CDT N 0.0 10.00 Partly Cloudy -- 83.0 69.1 63% NA 87 30.00 1015.5
12:56 pm CDT N 0.0 10.00 Overcast -- 83.0 71.1 67% NA 88 30.03 1016.8
11:56 am CDT SE 5.8 9.00 Mostly Cloudy -- 84.0 72.0 67% NA 90 30.05 1017.3
10:56 am CDT 4.6 10.00 A Few Clouds -- 80.0 72.0 76% NA 84 30.06 1017.6
9:56 am CDT SE 9.2 10.00 Fair -- 77.0 71.1 82% NA NA 30.06 1017.8
8:56 am CDT E 4.6 10.00 Fair -- 71.0 69.1 94% NA NA 30.05 1017.5
7:56 am CDT E 3.5 7.00 Fair -- 68.0 66.9 96% NA NA 30.03 1016.8
6:56 am CDT NE 3.5 8.00 Fair -- 65.0 64.9 100% NA NA 30.04 1016.9
5:56 am CDT N 3.5 3.00 Fog/Mist -- 64.0 64.0 100% NA NA 30.03 1016.6
4:56 am CDT NE 3.5 5.00 Fog/Mist -- 64.0 64.0 100% NA NA 30.02 1016.4
3:56 am CDT N 0.0 5.00 Fog/Mist -- 64.0 64.0 100% NA NA 30.02 1016.3
2:56 am CDT N 0.0 7.00 Fair -- 64.0 63.0 96% NA NA 30.02 1016.4
1:56 am CDT N 0.0 7.00 Fair -- 63.0 63.0 100% NA NA 30.02 1016.5
12:56 am CDT N 0.0 3.00 Fog/Mist -- 64.0 64.0 100% NA NA 30.04 1016.9
11:56 pm CDT N 0.0 9.00 Fair -- 64.0 64.0 100% NA NA 30.04 1017.2
10:56 pm CDT N 0.0 10.00 Fair -- 66.0 64.9 96% NA NA 30.04 1017.1

Regional Weather Observation


Hattiesburg, Bobby L Chain Municipal Airport, MS (KHBG)

A Few Clouds
69.0 F

Brookhaven-Lincoln County Airport, MS (K1R7)

Overcast
70.0 F

McComb, McComb / Pike County / John E Lewis Field Airport, MS (KMCB)

Light Rain
71.0 F

Jackson, Jackson International Airport, MS (KJAN)

Light Rain
70.0 F

Bogalusa, George R Carr Memorial Air Field, LA (KBXA)

Mostly Cloudy
71.0 F

Jackson, Hawkins Field Airport, MS (KHKS)

Rain Fog/Mist
70.0 F